MOST

Last updated on Sun Jun 21 2026 00:03:39 GMT+0000 (Coordinated Universal Time)

1 27843U 03031D 26171.44953571 .00000034 00000+0 35488-4 0 9994 2 27843 98.7044 179.1301 0008815 239.9123 120.1181 14.21322997191174
UTC large
Height (km)
Speed (km/s)
/
Latitude / Longitude
Inclination (degrees)
Orbital Period (minutes)
Azimuth
Elevation
Range (km)
Doppler Factor

Next 0 passes for location: London (51.5072 / 0.1276)

No passes found over London.
MOST